Bloomington, IN

4:55 AM EDT on September 29, 2016 (GMT -0400)
Monroe County

Weather History for KBMG - January, 2014

Change the Weather History Date:

Tuesday, January 7, 2014

  Actual Average Record
Temperature  
Mean Temperature 2 °F 29 °F  
Max Temperature 12 °F 38 °F 64 °F (2008)
Min Temperature -9 °F 21 °F -9 °F (2014)
Degree Days  
Heating Degree Days 63 36  
Month to date heating degree days 333 252  
Since 1 July heating degree days 2484 2325  
Cooling Degree Days 0 0  
Month to date cooling degree days 0 0  
Year to date cooling degree days 0 0  
Moisture  
Dew Point -7 °F    
Average Humidity 65    
Maximum Humidity 72    
Minimum Humidity 58    
Precipitation  
Precipitation 0.00 in 0.12 in 0.32 in (2005)
Month to date precipitation 1.63 0.92  
Year to date precipitation 1.63 0.92  
Sea Level Pressure  
Sea Level Pressure 30.44 in    
Wind  
Wind Speed 8 mph (SSW)    
Max Wind Speed 17 mph    
Max Gust Speed 23 mph    
Visibility 10 miles    
Events      
T = Trace of Precipitation, MM = Missing Value Source: NWS Daily Summary

Daily Weather History Graph

Daily Weather History Graph

Search for Another Location

Airport or City:

Trip Planner

Search our weather history database for the weather conditions in past years. The results will help you decide how hot, cold, wet, or windy it might be!

Date:

Astronomy

Jan. 07, 2014 Rise Set
Actual Time 8:05 AM EST 5:39 PM EST
Civil Twilight 7:36 AM EST 6:09 PM EST
Nautical Twilight 7:02 AM EST 6:42 PM EST
Astronomical Twilight 6:30 AM EST 7:15 PM EST
Moon 11:57 AM EST (1/7) 12:08 AM EST (1/7)
Length of Visible Light 10h 33m
Length of Day
9h 33m
Waxing Crescent, 45% of the Moon is Illuminated
Jan 7
Waxing Crescent
Jan 7
First Quarter
Jan 15
Full
Jan 24
Last Quarter
Jan 30
New

Hourly Weather History & Observations

Time (EST) Temp. Windchill Dew Point Humidity Pressure Visibility Wind Dir Wind Speed Gust Speed Precip Events Conditions
12:53 AM -9.0 °F -25.2 °F -17.0 °F 68% 30.47 in 10.0 mi WSW 8.1 mph - N/A   Clear
1:53 AM -8.0 °F -23.9 °F -17.0 °F 65% 30.47 in 10.0 mi WSW 8.1 mph - N/A   Clear
2:53 AM -8.0 °F -23.9 °F -16.1 °F 68% 30.47 in 10.0 mi WSW 8.1 mph - N/A   Clear
3:53 AM -9.0 °F -23.8 °F -16.1 °F 71% 30.48 in 10.0 mi WSW 6.9 mph - N/A   Clear
4:53 AM -8.0 °F -22.5 °F -16.1 °F 68% 30.47 in 10.0 mi SW 6.9 mph - N/A   Clear
5:53 AM -9.0 °F -23.8 °F -16.1 °F 71% 30.47 in 10.0 mi WSW 6.9 mph - N/A   Clear
6:53 AM -9.0 °F -22.3 °F -16.1 °F 71% 30.48 in 10.0 mi SW 5.8 mph - N/A   Clear
7:53 AM -8.0 °F -21.0 °F -14.1 °F 75% 30.50 in 10.0 mi SW 5.8 mph - N/A   Clear
8:53 AM -7.1 °F -18.1 °F -14.1 °F 72% 30.52 in 10.0 mi SW 4.6 mph - N/A   Clear
9:53 AM -2.9 °F -18.8 °F -9.9 °F 72% 30.51 in 10.0 mi SW 9.2 mph - N/A   Clear
10:53 AM 1.0 °F -14.0 °F -8.0 °F 66% 30.51 in 10.0 mi SW 9.2 mph - N/A   Clear
11:53 AM 3.9 °F -12.2 °F -6.0 °F 64% 30.50 in 10.0 mi WSW 11.5 mph - N/A   Clear
12:53 PM 6.1 °F -10.2 °F -5.1 °F 60% 30.46 in 10.0 mi WSW 12.7 mph - N/A   Clear
1:53 PM 7.0 °F -9.1 °F -2.9 °F 64% 30.45 in 10.0 mi SW 12.7 mph 21.9 mph N/A   Overcast
2:53 PM 9.0 °F -5.9 °F -2.9 °F 59% 30.41 in 10.0 mi SSW 11.5 mph - N/A   Overcast
3:53 PM 10.0 °F -3.7 °F -2.0 °F 58% 30.40 in 10.0 mi SSW 10.4 mph - N/A   Overcast
4:53 PM 10.9 °F -3.4 °F -0.9 °F 59% 30.38 in 10.0 mi South 11.5 mph - N/A   Overcast
5:53 PM 10.9 °F 0.2 °F -0.0 °F 61% 30.38 in 10.0 mi South 6.9 mph - N/A   Overcast
6:53 PM 10.9 °F 1.4 °F -0.0 °F 61% 30.39 in 10.0 mi South 5.8 mph - N/A   Overcast
7:53 PM 10.9 °F 1.4 °F 1.0 °F 64% 30.39 in 10.0 mi SSE 5.8 mph - N/A   Overcast
8:53 PM 10.0 °F 0.4 °F -0.0 °F 64% 30.40 in 10.0 mi South 5.8 mph - N/A   Clear
9:53 PM 10.0 °F 0.4 °F -0.0 °F 64% 30.39 in 10.0 mi SSE 5.8 mph - N/A   Clear
10:53 PM 9.0 °F -4.2 °F -0.0 °F 67% 30.38 in 10.0 mi SSE 9.2 mph - N/A   Clear
11:53 PM 9.0 °F -3.2 °F 1.0 °F 70% 30.37 in 10.0 mi SSE 8.1 mph - N/A   Clear